2001 CA21
ephemeris date magn radius delta ra dec elong phase
Today10 Jun 202624.22.907 AU3.895 AU04h21m+22°17'11.6°4.0°
2001 CA21 - 2026-06-10
astro.vanbuitenen.nl


 
-1 year
-1 month
-1 day
Now
+1 day
+1 month
+1 year

The interactive orbit chart above shows the body's path through the solar system and its position at the given date. Green and blue lines are shown perpendicular to the ecliptic plane: Green if the path is above the ecliptic plane, blue if it is below. (Left-click and drag to rotate the view; Right-click and drag to move the view; Use scroll wheel to zoom in our out.)

The orbital elements of 2001 CA21 are:

            e (Eccentricity)                : 0.8289717
            a (Semimajor axis)              : 2.1131443
            i (Inclination)                 : 5.25828
            Ω (Longitude of ascending node) : 51.79975
            ω (Argument of perihelion)      : 212.75474
            M (Mean anomaly)                : 343.17872
            Epoch                           : 2001 Jan 31

            L (Longitude of perihelion)     : 84.44464
            B (Latitude of perihelion)      : -2.84213
            P (Orbital period in years)     : 3.07            
        

The light curve chart below shows the estimated development of the minor planet's magnitude.


The all-sky chart below shows the path of the minor planet over the same period as the light curve. The current position is marked yellow.





The following chart shows the path of the minor planet in the next few days. The field of view is optimized for (~10x50) binoculars and finderscopes.




Ephemerides:
Date       Time       RA (2000)    DEC (2000)    delta   radius  elong  phase   PA    magn
2026-06-10 00:00 UT   04 21 14.8   +22 17 34     3.895    2.907   11.6    4.0   264   24.2 
2026-06-10 02:01 UT   04 21 21.4   +22 17 52     3.895    2.908   11.6    4.0   264   24.2 
2026-06-11 00:00 UT   04 22 33.3   +22 21 04     3.898    2.914   12.2    4.2   264   24.3 
2026-06-12 00:00 UT   04 23 51.4   +22 24 30     3.901    2.920   12.8    4.4   264   24.3 
2026-06-13 00:00 UT   04 25 09.3   +22 27 53     3.904    2.926   13.5    4.6   264   24.3 
2026-06-14 00:00 UT   04 26 26.9   +22 31 13     3.907    2.933   14.1    4.9   264   24.3 
2026-06-15 00:00 UT   04 27 44.1   +22 34 31     3.909    2.939   14.8    5.1   264   24.3 
2026-06-16 00:00 UT   04 29 01.1   +22 37 45     3.911    2.945   15.5    5.3   264   24.3 
2026-06-17 00:00 UT   04 30 17.8   +22 40 57     3.914    2.951   16.1    5.5   264   24.4 
2026-06-18 00:00 UT   04 31 34.2   +22 44 05     3.915    2.957   16.8    5.7   264   24.4 
2026-06-19 00:00 UT   04 32 50.2   +22 47 11     3.917    2.963   17.4    5.9   264   24.4 
2026-06-20 00:00 UT   04 34 06.0   +22 50 14     3.919    2.970   18.1    6.1   264   24.4 
2026-06-21 00:00 UT   04 35 21.4   +22 53 14     3.920    2.976   18.7    6.3   264   24.4 
2026-06-22 00:00 UT   04 36 36.4   +22 56 11     3.921    2.982   19.4    6.5   264   24.4 
2026-06-23 00:00 UT   04 37 51.2   +22 59 06     3.922    2.988   20.1    6.7   264   24.4 
2026-06-24 00:00 UT   04 39 05.6   +23 01 58     3.922    2.994   20.7    6.9   264   24.5 
2026-06-25 00:00 UT   04 40 19.6   +23 04 47     3.923    3.000   21.4    7.1   265   24.5 
2026-06-26 00:00 UT   04 41 33.3   +23 07 33     3.923    3.006   22.1    7.3   265   24.5 
2026-06-27 00:00 UT   04 42 46.7   +23 10 17     3.923    3.012   22.7    7.5   265   24.5 
2026-06-28 00:00 UT   04 43 59.7   +23 12 58     3.923    3.017   23.4    7.7   265   24.5 
2026-06-29 00:00 UT   04 45 12.3   +23 15 36     3.923    3.023   24.1    7.9   265   24.5 
2026-06-30 00:00 UT   04 46 24.6   +23 18 12     3.922    3.029   24.8    8.1   265   24.5 
2026-07-01 00:00 UT   04 47 36.5   +23 20 46     3.921    3.035   25.4    8.3   265   24.6 
2026-07-02 00:00 UT   04 48 48.1   +23 23 17     3.921    3.041   26.1    8.5   265   24.6 
2026-07-03 00:00 UT   04 49 59.2   +23 25 45     3.919    3.047   26.8    8.6   265   24.6 
2026-07-04 00:00 UT   04 51 10.0   +23 28 11     3.918    3.052   27.5    8.8   265   24.6 
2026-07-05 00:00 UT   04 52 20.4   +23 30 34     3.917    3.058   28.1    9.0   265   24.6 
2026-07-06 00:00 UT   04 53 30.4   +23 32 55     3.915    3.064   28.8    9.2   265   24.6 
2026-07-07 00:00 UT   04 54 40.0   +23 35 14     3.913    3.069   29.5    9.4   265   24.6 
2026-07-08 00:00 UT   04 55 49.3   +23 37 30     3.911    3.075   30.2    9.6   265   24.6 
2026-07-09 00:00 UT   04 56 58.1   +23 39 44     3.909    3.081   30.9    9.8   265   24.6 


    Terminology:
            
    delta:  distance between minor planet and earth in AU
    radius: distance between minor planet and sun in AU
    magn:   magnitude (brightness) estimate    
    ra:     right ascension in hours (24h = 360deg)
    dec:    declination in degrees
    elong:  elongation in degrees (angle sun-earth-minor planet)    
    phase:  phase angle in degrees (angle sun-minor planet-earth)        
    AU:     Astronomical Unit (mean distance between earth and sun: 149597870.7 km
    

Orbital elements provided by the MPC (Minor Planet Center).
Calculations by a modified version of AAPlus, a C# implementation of the AA+ project by PJ Naughter from the algorithms presented in the book "Astronomical Algorithms" by Jean Meeus.
NGC2000 dso catalog and star labels from VizieR as provided by the Strasbourg astronomical Data Center.
Tycho2 catalog from the ESO archive.